User: anonymous
Location: D.A.R.C. Observatory
(36.7133°N, 120.8553°W)
Time: 02:28:45
(UTC-07:00)
Language:

USA 215 - Orbit

View from above orbital plane
View from above orbital plane
View from above satellite
View from above satellite

Ground track
Ground track

The orbit data is extracted from the following two-line orbital elements,

1 37162U 10046A   14250.68098574 0.00000000  00000-0  00000-0 0    02
2 37162 122.9945 270.0691 0002247 224.3067 135.6932 13.41449480    04
Epoch (UTC): 07 September 2014 16:20:37
Eccentricity: 0.0002247
inclination: 122.9945°
perigee height: 1102 km
apogee height: 1105 km
right ascension of ascending node: 270.0691°
argument of perigee: 224.3067°
revolutions per day: 13.41449480
mean anomaly at epoch: 135.6932°
orbit number at epoch: 0

The dashed part of the orbit path shows where the satellite is in the earth's shadow,  

DLR